Weather Roundup
Issued by NWS

Home | Current Version | Previous Version | Text Only | Print | Product List | Glossary On
Versions: 1 2 3 4 5 6 7 8 9 10 11 12 13 14 15 16 17 18 19 20 21 22 23 24 25 26 27 28 29 30 31 32 33 34 35 36 37 38 39 40 41 42 43 44 45 46 47 48 49 50
000
NZUS93 KARX 171859
HRRWXR

CURRENT HOURLY OBSERVATIONS ACROSS
MUCH OF THE UPPER MISSISSIPPI VALLEY
NATIONAL WEATHER SERVICE LA CROSSE WI
200 PM CDT TUE OCT 17 2017


...SOUTHEAST MINNESOTA...


CITY           SKY/WX    TMP DP  RH WIND       PRES   REMARKS
ROCHESTER      SUNNY     71  46  40 S13G20    30.02F
ROCHESTER/MAYO FAIR      70  42  35 S10       30.02F
WINONA         SUNNY     70  45  40 S3        30.01F
AUSTIN         SUNNY     70  43  37 S5        30.02F
ALBERT LEA     SUNNY     73  45  35 SW5       30.02F
DODGE CENTER   SUNNY     72  39  30 S8        30.01F
PRESTON        SUNNY     68  43  41 SW10      30.04F
OWATONNA       SUNNY     73  43  33 S9        30.00F
FARIBAULT      SUNNY     72  43  35 S7        30.00F
$$

...ELSEWHERE IN MINNESOTA...


CITY           SKY/WX    TMP DP  RH WIND       PRES   REMARKS
MINNEAPOLIS    MOSUNNY   68  46  45 SW6       29.98F
INTNL FALLS    SUNNY     71  35  26 SW12G20   29.84F
DULUTH         MOSUNNY   67  40  37 SW13      29.93F
RED WING       SUNNY     70  41  35 CALM      29.98F
REDWOOD FALLS  SUNNY     74  38  27 SW8       29.96F
MANKATO        SUNNY     72  42  34 SW9       30.00F
WORTHINGTON    SUNNY     73  38  27 VRB7      30.02F
FAIRMONT       SUNNY     75  41  29 MISG      30.01F
$$

...SOUTHWEST WISCONSIN...


CITY           SKY/WX    TMP DP  RH WIND       PRES   REMARKS
LA CROSSE      SUNNY     69  46  43 S12       30.02F
PRAIRIE DU CHI SUNNY     68  41  37 S8        30.06F
BOSCOBEL       SUNNY     71  43  36 SW10      30.06F
LONE ROCK      SUNNY     69  47  45 SW12      30.06F
PLATTEVILLE    SUNNY     69  45  42 SW17G23   30.10F
FORT MC COY    SUNNY     67  46  46 SW3       30.04F
MAUSTON-NEW LI CLEAR     67  47  47 S8        30.04F
VIROQUA        FAIR      65  46  49 SW9       30.06F
WIS DELLS      SUNNY     67  44  44 SW10      30.06F
$$

...ELSEWHERE IN WISCONSIN...


CITY           SKY/WX    TMP DP  RH WIND       PRES   REMARKS
MILWAUKEE      MOSUNNY   71  43  36 SW15G26   30.09F
MADISON        MOSUNNY   67  44  43 SW9G17    30.07F
GREEN BAY      SUNNY     65  50  58 SW12      30.02F
EAU CLAIRE     NOT AVBL
BLACK RVR FLS  FAIR      69  40  34 S3        30.02F
MEDFORD        SUNNY     65  45  46 S9        30.02F
WAUSAU         SUNNY     67  44  43 S8        30.00F
WIS RAPIDS     SUNNY     67  47  48 S8        30.04F
MARSHFIELD     SUNNY     69  43  38 SW8       30.01F
RICE LAKE        N/A    N/A N/A N/A MISG        N/A
$$

...NORTHEAST IOWA...


CITY           SKY/WX    TMP DP  RH WIND       PRES   REMARKS
WATERLOO       SUNNY     70  43  37 SW14      30.05F
DUBUQUE        SUNNY     68  45  43 SW14      30.10F
DECORAH        SUNNY     68  43  40 SW9       30.04F
MASON CITY     SUNNY     69  44  40 S7G17     30.05F
CHARLES CITY   SUNNY     70  41  35 S9        30.05F
OELWEIN        SUNNY     70  45  40 SW15G22   30.06F
$$

...ELSEWHERE IN IOWA...


CITY           SKY/WX    TMP DP  RH WIND       PRES   REMARKS
DES MOINES     SUNNY     72  43  35 S15G22    30.06F
IOWA CITY      SUNNY     72  42  34 SW13      30.12F
FORT DODGE     SUNNY     70  45  40 SW9       30.04F
MARSHALLTOWN   SUNNY     71  43  36 SW18G24   30.06F
CEDAR RAPIDS   SUNNY     71  42  35 SW15G24   30.09F
$$

...NORTHERN ILLINOIS...


CITY           SKY/WX    TMP DP  RH WIND       PRES   REMARKS
CHICAGO-OHARE  MOSUNNY   69  41  36 SW17G28   30.14F
CHICAGO-MIDWAY MOSUNNY   69  41  36 SW17G24   30.16F
MOLINE         SUNNY     70  43  37 SW16      30.13F
ROCKFORD       MOSUNNY   73  46  38 SW13      30.14F
PEORIA         SUNNY     68  41  37 SW20      30.19F
$$

NOTE: "FAIR" INDICATES FEW OR NO CLOUDS BELOW 12,000 FEET WITH NO
SIGNIFICANT WEATHER AND/OR OBSTRUCTIONS TO VISIBILITY. WIND
SPEEDS ARE IN MILES-PER-HOUR.




USA.gov is the U.S. government's official web portal to all federal, state and local government web resources and services.